Time,TemperatureF,DewpointF,PressureIn,WindDirection,WindDirectionDegrees,WindSpeedMPH,WindSpeedGustMPH,Humidity,HourlyPrecipIn,Conditions,Clouds,dailyrainin,SoftwareType,DateUTC
2013-11-20 00:01:00,39.5,27.6,30.30,NNE,18,0.0,0.0,62,0.00,,,0.00,WUHU216DAVISVP2,2013-11-20 05:01:00,
2013-11-20 00:06:00,39.5,27.6,30.32,NE,35,0.0,0.0,62,0.00,,,0.00,WUHU216DAVISVP2,2013-11-20 05:06:00,
2013-11-20 00:11:00,39.5,27.6,30.32,NE,45,0.0,0.0,62,0.00,,,0.00,WUHU216DAVISVP2,2013-11-20 05:11:00,
2013-11-20 00:16:00,39.5,27.6,30.32,North,8,0.0,0.0,62,0.00,,,0.00,WUHU216DAVISVP2,2013-11-20 05:16:00,
2013-11-20 00:21:00,39.6,27.7,30.31,NE,55,0.0,0.0,62,0.00,,,0.00,WUHU216DAVISVP2,2013-11-20 05:21:00,
2013-11-20 00:26:00,39.6,27.7,30.31,NNE,32,0.0,0.0,62,0.00,,,0.00,WUHU216DAVISVP2,2013-11-20 05:26:00,
2013-11-20 00:31:00,39.6,27.7,30.31,NNE,16,0.0,0.0,62,0.00,,,0.00,WUHU216DAVISVP2,2013-11-20 05:31:00,
2013-11-20 00:37:00,39.6,27.7,30.31,North,10,0.0,0.0,62,0.00,,,0.00,WUHU216DAVISVP2,2013-11-20 05:37:00,
2013-11-20 00:42:00,39.6,27.6,30.31,ENE,73,0.0,0.0,62,0.00,,,0.00,WUHU216DAVISVP2,2013-11-20 05:42:00,
2013-11-20 00:47:00,39.6,27.7,30.31,ENE,73,0.0,0.0,62,0.00,,,0.00,WUHU216DAVISVP2,2013-11-20 05:47:00,
2013-11-20 00:52:00,39.8,27.9,30.31,North,0,0.0,0.0,62,0.00,,,0.00,WUHU216DAVISVP2,2013-11-20 05:52:00,
2013-11-20 00:59:00,39.9,28.0,30.31,North,1,0.0,0.0,62,0.00,,,0.00,WUHU216DAVISVP2,2013-11-20 05:59:00,
2013-11-20 01:04:00,39.9,28.0,30.31,North,10,0.0,0.0,62,0.00,,,0.00,WUHU216DAVISVP2,2013-11-20 06:04:00,
2013-11-20 01:09:00,39.8,27.9,30.31,North,349,0.0,0.0,62,0.00,,,0.00,WUHU216DAVISVP2,2013-11-20 06:09:00,
2013-11-20 01:14:00,39.8,27.8,30.31,North,349,0.0,0.0,62,0.00,,,0.00,WUHU216DAVISVP2,2013-11-20 06:14:00,
2013-11-20 01:19:00,39.8,27.9,30.30,NE,40,0.0,0.0,62,0.00,,,0.00,WUHU216DAVISVP2,2013-11-20 06:19:00,
2013-11-20 01:24:00,39.5,27.6,30.30,East,93,0.0,0.0,62,0.00,,,0.00,WUHU216DAVISVP2,2013-11-20 06:24:00,
2013-11-20 01:29:00,39.3,27.4,30.30,North,359,0.0,0.0,62,0.00,,,0.00,WUHU216DAVISVP2,2013-11-20 06:29:00,
2013-11-20 01:34:00,39.3,27.4,30.31,North,0,0.0,0.0,62,0.00,,,0.00,WUHU216DAVISVP2,2013-11-20 06:34:00,
2013-11-20 01:39:00,39.2,27.3,30.31,North,0,0.0,0.0,62,0.00,,,0.00,WUHU216DAVISVP2,2013-11-20 06:39:00,
2013-11-20 01:44:00,38.9,27.1,30.31,NNE,28,0.0,0.0,62,0.00,,,0.00,WUHU216DAVISVP2,2013-11-20 06:44:00,
2013-11-20 01:49:00,38.8,27.0,30.31,NNE,18,0.0,0.0,62,0.00,,,0.00,WUHU216DAVISVP2,2013-11-20 06:49:00,
2013-11-20 01:54:00,38.8,26.9,30.31,East,83,0.0,0.0,62,0.00,,,0.00,WUHU216DAVISVP2,2013-11-20 06:54:00,
2013-11-20 01:59:00,38.8,27.0,30.31,East,82,0.0,0.0,62,0.00,,,0.00,WUHU216DAVISVP2,2013-11-20 06:59:00,
2013-11-20 02:04:00,38.8,27.0,30.32,ENE,75,0.0,0.0,62,0.00,,,0.00,WUHU216DAVISVP2,2013-11-20 07:04:00,
2013-11-20 02:09:00,38.8,27.0,30.32,ENE,75,0.0,0.0,62,0.00,,,0.00,WUHU216DAVISVP2,2013-11-20 07:09:00,
2013-11-20 02:14:00,38.6,26.8,30.32,ENE,75,0.0,0.0,62,0.00,,,0.00,WUHU216DAVISVP2,2013-11-20 07:14:00,
2013-11-20 02:19:00,38.6,27.2,30.32,NNE,24,0.0,0.0,63,0.00,,,0.00,WUHU216DAVISVP2,2013-11-20 07:19:00,
2013-11-20 02:24:00,38.6,27.2,30.32,ENE,64,0.0,0.0,63,0.00,,,0.00,WUHU216DAVISVP2,2013-11-20 07:24:00,
2013-11-20 02:29:00,38.6,27.2,30.32,NE,54,0.0,0.0,63,0.00,,,0.00,WUHU216DAVISVP2,2013-11-20 07:29:00,
2013-11-20 02:34:00,38.8,27.4,30.32,North,7,0.0,0.0,63,0.00,,,0.00,WUHU216DAVISVP2,2013-11-20 07:34:00,
2013-11-20 02:39:00,38.8,27.4,30.32,East,95,0.0,0.0,63,0.00,,,0.00,WUHU216DAVISVP2,2013-11-20 07:39:00,
2013-11-20 02:44:00,38.8,27.4,30.32,East,93,0.0,0.0,63,0.00,,,0.00,WUHU216DAVISVP2,2013-11-20 07:44:00,
2013-11-20 02:49:00,38.8,27.3,30.31,North,0,0.0,0.0,63,0.00,,,0.00,WUHU216DAVISVP2,2013-11-20 07:49:00,
2013-11-20 02:54:00,38.8,27.3,30.31,NNW,346,0.0,0.0,63,0.00,,,0.00,WUHU216DAVISVP2,2013-11-20 07:54:00,
2013-11-20 02:59:00,38.8,27.4,30.31,North,0,0.0,0.0,63,0.00,,,0.00,WUHU216DAVISVP2,2013-11-20 07:59:00,
2013-11-20 03:04:00,38.8,27.4,30.32,North,3,0.0,0.0,63,0.00,,,0.00,WUHU216DAVISVP2,2013-11-20 08:04:00,
2013-11-20 03:09:00,38.8,27.4,30.32,NNW,343,0.0,0.0,63,0.00,,,0.00,WUHU216DAVISVP2,2013-11-20 08:09:00,
2013-11-20 03:14:00,38.8,27.4,30.32,North,352,0.0,0.0,63,0.00,,,0.00,WUHU216DAVISVP2,2013-11-20 08:14:00,
2013-11-20 03:19:00,38.8,27.4,30.33,North,357,0.0,0.0,63,0.00,,,0.00,WUHU216DAVISVP2,2013-11-20 08:19:00,
2013-11-20 03:24:00,38.8,27.4,30.33,North,0,0.0,0.0,63,0.00,,,0.00,WUHU216DAVISVP2,2013-11-20 08:24:00,
2013-11-20 03:29:00,38.6,27.2,30.33,North,0,0.0,0.0,63,0.00,,,0.00,WUHU216DAVISVP2,2013-11-20 08:29:00,
2013-11-20 03:34:00,38.6,27.2,30.32,North,0,0.0,0.0,63,0.00,,,0.00,WUHU216DAVISVP2,2013-11-20 08:34:00,
2013-11-20 03:39:00,38.6,27.2,30.32,North,359,0.0,0.0,63,0.00,,,0.00,WUHU216DAVISVP2,2013-11-20 08:39:00,
2013-11-20 03:44:00,38.5,27.0,30.32,East,86,0.0,0.0,63,0.00,,,0.00,WUHU216DAVISVP2,2013-11-20 08:44:00,
2013-11-20 03:49:00,38.5,27.1,30.33,North,1,0.0,0.0,63,0.00,,,0.00,WUHU216DAVISVP2,2013-11-20 08:49:00,
2013-11-20 03:54:00,38.3,26.9,30.33,North,0,0.0,0.0,63,0.00,,,0.00,WUHU216DAVISVP2,2013-11-20 08:54:00,
2013-11-20 03:59:00,38.3,26.9,30.33,North,0,0.0,0.0,63,0.00,,,0.00,WUHU216DAVISVP2,2013-11-20 08:59:00,
2013-11-20 04:04:00,38.2,26.8,30.33,North,359,0.0,0.0,63,0.00,,,0.00,WUHU216DAVISVP2,2013-11-20 09:04:00,
2013-11-20 04:09:00,38.2,26.8,30.33,NE,47,0.0,0.0,63,0.00,,,0.00,WUHU216DAVISVP2,2013-11-20 09:09:00,
2013-11-20 04:14:00,38.0,26.6,30.33,NE,47,0.0,0.0,63,0.00,,,0.00,WUHU216DAVISVP2,2013-11-20 09:14:00,
2013-11-20 04:19:00,38.0,26.6,30.32,NE,47,0.0,0.0,63,0.00,,,0.00,WUHU216DAVISVP2,2013-11-20 09:19:00,
2013-11-20 04:24:00,38.0,27.0,30.32,North,0,0.0,0.0,64,0.00,,,0.00,WUHU216DAVISVP2,2013-11-20 09:24:00,
2013-11-20 04:29:00,37.9,26.9,30.32,North,0,0.0,0.0,64,0.00,,,0.00,WUHU216DAVISVP2,2013-11-20 09:29:00,
2013-11-20 04:34:00,37.9,26.9,30.34,North,0,0.0,0.0,64,0.00,,,0.00,WUHU216DAVISVP2,2013-11-20 09:34:00,
2013-11-20 04:39:00,37.9,26.9,30.34,North,350,0.0,0.0,64,0.00,,,0.00,WUHU216DAVISVP2,2013-11-20 09:39:00,
2013-11-20 04:44:00,37.5,26.5,30.34,NNW,342,0.0,0.0,64,0.00,,,0.00,WUHU216DAVISVP2,2013-11-20 09:44:00,
2013-11-20 04:49:00,37.5,26.5,30.34,NNW,342,0.0,0.0,64,0.00,,,0.00,WUHU216DAVISVP2,2013-11-20 09:49:00,
2013-11-20 04:54:00,37.5,26.5,30.34,North,356,0.0,0.0,64,0.00,,,0.00,WUHU216DAVISVP2,2013-11-20 09:54:00,
2013-11-20 04:59:00,37.0,26.0,30.34,North,359,0.0,0.0,64,0.00,,,0.00,WUHU216DAVISVP2,2013-11-20 09:59:00,
2013-11-20 05:05:00,36.9,25.9,30.35,NNW,332,0.0,0.0,64,0.00,,,0.00,WUHU216DAVISVP2,2013-11-20 10:05:00,
2013-11-20 05:10:00,36.6,26.0,30.35,NNW,343,0.0,0.0,65,0.00,,,0.00,WUHU216DAVISVP2,2013-11-20 10:10:00,
2013-11-20 05:17:00,36.5,25.9,30.35,NNW,343,0.0,0.0,65,0.00,,,0.00,WUHU216DAVISVP2,2013-11-20 10:17:00,
2013-11-20 05:22:00,36.5,25.9,30.36,NNW,343,0.0,0.0,65,0.00,,,0.00,WUHU216DAVISVP2,2013-11-20 10:22:00,
2013-11-20 05:27:00,36.2,25.6,30.36,North,359,0.0,0.0,65,0.00,,,0.00,WUHU216DAVISVP2,2013-11-20 10:27:00,
2013-11-20 05:32:00,36.2,25.6,30.36,North,359,0.0,0.0,65,0.00,,,0.00,WUHU216DAVISVP2,2013-11-20 10:32:00,
2013-11-20 05:37:00,36.2,25.6,30.36,North,359,0.0,0.0,65,0.00,,,0.00,WUHU216DAVISVP2,2013-11-20 10:37:00,
2013-11-20 05:42:00,36.2,25.6,30.36,East,93,0.0,0.0,65,0.00,,,0.00,WUHU216DAVISVP2,2013-11-20 10:42:00,
2013-11-20 05:47:00,36.2,25.6,30.36,NNW,344,0.0,0.0,65,0.00,,,0.00,WUHU216DAVISVP2,2013-11-20 10:47:00,
2013-11-20 05:52:00,36.2,25.6,30.36,NNW,344,0.0,0.0,65,0.00,,,0.00,WUHU216DAVISVP2,2013-11-20 10:52:00,
2013-11-20 05:57:00,36.2,26.4,30.36,NNW,337,0.0,0.0,67,0.00,,,0.00,WUHU216DAVISVP2,2013-11-20 10:57:00,
2013-11-20 06:02:00,36.2,26.4,30.36,NNW,337,0.0,0.0,67,0.00,,,0.00,WUHU216DAVISVP2,2013-11-20 11:02:00,
2013-11-20 06:07:00,36.2,26.4,30.37,East,90,0.0,0.0,67,0.00,,,0.00,WUHU216DAVISVP2,2013-11-20 11:07:00,
2013-11-20 06:12:00,36.5,26.7,30.37,ENE,66,0.0,0.0,67,0.00,,,0.00,WUHU216DAVISVP2,2013-11-20 11:12:00,
2013-11-20 06:17:00,36.5,26.7,30.37,East,82,0.0,0.0,67,0.00,,,0.00,WUHU216DAVISVP2,2013-11-20 11:17:00,
2013-11-20 06:22:00,36.5,26.7,30.36,ENE,64,0.0,0.0,67,0.00,,,0.00,WUHU216DAVISVP2,2013-11-20 11:22:00,
2013-11-20 06:27:00,36.2,26.4,30.36,NE,52,0.0,0.0,67,0.00,,,0.00,WUHU216DAVISVP2,2013-11-20 11:27:00,
2013-11-20 06:32:00,36.2,26.4,30.36,NW,316,0.0,0.0,67,0.00,,,0.00,WUHU216DAVISVP2,2013-11-20 11:32:00,
2013-11-20 06:37:00,35.9,26.1,30.37,NW,320,0.0,0.0,67,0.00,,,0.00,WUHU216DAVISVP2,2013-11-20 11:37:00,
2013-11-20 06:42:00,35.9,26.4,30.37,NW,320,0.0,0.0,68,0.00,,,0.00,WUHU216DAVISVP2,2013-11-20 11:42:00,
2013-11-20 06:47:00,35.9,26.4,30.37,NW,320,0.0,0.0,68,0.00,,,0.00,WUHU216DAVISVP2,2013-11-20 11:47:00,
2013-11-20 06:52:00,35.9,26.4,30.38,NW,320,0.0,0.0,68,0.00,,,0.00,WUHU216DAVISVP2,2013-11-20 11:52:00,
2013-11-20 06:57:00,35.5,26.1,30.38,NE,41,0.0,0.0,68,0.00,,,0.00,WUHU216DAVISVP2,2013-11-20 11:57:00,
2013-11-20 07:02:00,35.5,26.1,30.38,NE,41,0.0,0.0,68,0.00,,,0.00,WUHU216DAVISVP2,2013-11-20 12:02:00,
2013-11-20 07:07:00,35.5,26.1,30.39,NE,41,0.0,0.0,68,0.00,,,0.00,WUHU216DAVISVP2,2013-11-20 12:07:00,
2013-11-20 07:12:00,35.3,25.9,30.39,NW,323,0.0,0.0,68,0.00,,,0.00,WUHU216DAVISVP2,2013-11-20 12:12:00,
2013-11-20 07:17:00,35.3,25.9,30.39,NW,323,0.0,0.0,68,0.00,,,0.00,WUHU216DAVISVP2,2013-11-20 12:17:00,
2013-11-20 07:22:00,35.3,25.9,30.39,NW,325,0.0,0.0,68,0.00,,,0.00,WUHU216DAVISVP2,2013-11-20 12:22:00,
2013-11-20 07:27:00,35.2,25.8,30.39,NW,315,0.0,0.0,68,0.00,,,0.00,WUHU216DAVISVP2,2013-11-20 12:27:00,
2013-11-20 07:32:00,35.2,25.8,30.39,NW,315,0.0,0.0,68,0.00,,,0.00,WUHU216DAVISVP2,2013-11-20 12:32:00,
2013-11-20 07:37:00,35.2,25.8,30.40,NW,315,0.0,0.0,68,0.00,,,0.00,WUHU216DAVISVP2,2013-11-20 12:37:00,
2013-11-20 07:42:00,35.2,25.8,30.40,NW,315,0.0,0.0,68,0.00,,,0.00,WUHU216DAVISVP2,2013-11-20 12:42:00,
2013-11-20 07:47:00,35.2,25.8,30.40,NW,315,0.0,0.0,68,0.00,,,0.00,WUHU216DAVISVP2,2013-11-20 12:47:00,
2013-11-20 07:52:00,35.2,25.8,30.41,NNW,328,0.0,0.0,68,0.00,,,0.00,WUHU216DAVISVP2,2013-11-20 12:52:00,
2013-11-20 07:57:00,35.2,25.8,30.41,NNW,328,0.0,0.0,68,0.00,,,0.00,WUHU216DAVISVP2,2013-11-20 12:57:00,
2013-11-20 08:02:00,35.8,27.0,30.41,NNW,332,0.0,0.0,70,0.00,,,0.00,WUHU216DAVISVP2,2013-11-20 13:02:00,
2013-11-20 08:07:00,35.8,27.0,30.41,NNW,335,0.0,0.0,70,0.00,,,0.00,WUHU216DAVISVP2,2013-11-20 13:07:00,
2013-11-20 08:12:00,36.3,27.5,30.41,NW,312,0.0,0.0,70,0.00,,,0.00,WUHU216DAVISVP2,2013-11-20 13:12:00,
2013-11-20 08:17:00,36.3,27.2,30.41,NNE,16,0.0,0.0,69,0.00,,,0.00,WUHU216DAVISVP2,2013-11-20 13:17:00,
2013-11-20 08:22:00,36.3,27.2,30.42,NNW,343,0.0,0.0,69,0.00,,,0.00,WUHU216DAVISVP2,2013-11-20 13:22:00,
2013-11-20 08:27:00,36.3,27.2,30.42,North,359,0.0,0.0,69,0.00,,,0.00,WUHU216DAVISVP2,2013-11-20 13:27:00,
2013-11-20 08:32:00,36.3,27.2,30.42,North,0,0.0,0.0,69,0.00,,,0.00,WUHU216DAVISVP2,2013-11-20 13:32:00,
2013-11-20 08:37:00,36.3,27.2,30.43,North,6,0.0,0.0,69,0.00,,,0.00,WUHU216DAVISVP2,2013-11-20 13:37:00,
2013-11-20 08:42:00,36.3,27.2,30.43,NNW,335,0.0,0.0,69,0.00,,,0.00,WUHU216DAVISVP2,2013-11-20 13:42:00,
2013-11-20 08:47:00,38.8,29.6,30.43,North,8,0.0,0.0,69,0.00,,,0.00,WUHU216DAVISVP2,2013-11-20 13:47:00,
2013-11-20 08:52:00,38.8,29.6,30.42,North,8,0.0,0.0,69,0.00,,,0.00,WUHU216DAVISVP2,2013-11-20 13:52:00,
2013-11-20 09:31:00,42.3,30.3,30.43,East,92,0.0,0.0,62,0.00,,,0.00,WUHU216DAVISVP2,2013-11-20 14:31:00,
2013-11-20 09:36:00,42.8,30.8,30.43,ENE,68,0.0,0.0,62,0.00,,,0.00,WUHU216DAVISVP2,2013-11-20 14:36:00,
2013-11-20 09:41:00,42.8,30.8,30.43,ENE,68,0.0,0.0,62,0.00,,,0.00,WUHU216DAVISVP2,2013-11-20 14:41:00,
2013-11-20 10:46:00,45.1,30.4,30.43,North,350,0.0,0.0,56,0.00,,,0.00,WUHU216DAVISVP2,2013-11-20 15:46:00,
2013-11-20 10:51:00,45.8,31.0,30.43,East,80,0.0,0.0,56,0.00,,,0.00,WUHU216DAVISVP2,2013-11-20 15:51:00,
2013-11-20 10:56:00,45.8,31.0,30.43,ENE,72,0.0,0.0,56,0.00,,,0.00,WUHU216DAVISVP2,2013-11-20 15:56:00,
2013-11-20 11:01:00,45.7,30.9,30.43,North,349,0.0,0.0,56,0.00,,,0.00,WUHU216DAVISVP2,2013-11-20 16:01:00,
2013-11-20 11:06:00,45.7,30.9,30.43,North,349,0.0,0.0,56,0.00,,,0.00,WUHU216DAVISVP2,2013-11-20 16:06:00,
2013-11-20 11:11:00,45.7,30.9,30.43,North,349,0.0,0.0,56,0.00,,,0.00,WUHU216DAVISVP2,2013-11-20 16:11:00,
2013-11-20 11:39:00,47.7,31.4,30.41,East,85,0.0,0.0,53,0.00,,,0.00,WUHU216DAVISVP2,2013-11-20 16:39:00,
2013-11-20 11:44:00,47.7,31.4,30.41,ENE,78,0.0,0.0,53,0.00,,,0.00,WUHU216DAVISVP2,2013-11-20 16:44:00,
2013-11-20 11:49:00,47.7,31.4,30.41,North,6,0.0,0.0,53,0.00,,,0.00,WUHU216DAVISVP2,2013-11-20 16:49:00,
2013-11-20 11:54:00,48.6,31.8,30.41,East,92,0.0,0.0,52,0.00,,,0.00,WUHU216DAVISVP2,2013-11-20 16:54:00,
2013-11-20 11:59:00,48.6,31.8,30.41,North,0,0.0,0.0,52,0.00,,,0.00,WUHU216DAVISVP2,2013-11-20 16:59:00,
2013-11-20 12:04:00,48.6,31.8,30.40,North,0,0.0,0.0,52,0.00,,,0.00,WUHU216DAVISVP2,2013-11-20 17:04:00,
2013-11-20 12:09:00,49.5,32.6,30.40,East,95,0.0,0.0,52,0.00,,,0.00,WUHU216DAVISVP2,2013-11-20 17:09:00,
2013-11-20 12:14:00,49.5,32.6,30.40,ENE,75,0.0,0.0,52,0.00,,,0.00,WUHU216DAVISVP2,2013-11-20 17:14:00,
2013-11-20 12:19:00,49.6,32.7,30.39,NNW,336,0.0,0.0,52,0.00,,,0.00,WUHU216DAVISVP2,2013-11-20 17:19:00,
2013-11-20 12:24:00,49.6,32.7,30.39,East,95,0.0,0.0,52,0.00,,,0.00,WUHU216DAVISVP2,2013-11-20 17:24:00,
2013-11-20 12:29:00,49.6,32.7,30.39,NE,41,0.0,0.0,52,0.00,,,0.00,WUHU216DAVISVP2,2013-11-20 17:29:00,
2013-11-20 12:34:00,49.6,32.7,30.39,East,82,0.0,0.0,52,0.00,,,0.00,WUHU216DAVISVP2,2013-11-20 17:34:00,
2013-11-20 12:39:00,49.6,32.7,30.39,East,82,0.0,0.0,52,0.00,,,0.00,WUHU216DAVISVP2,2013-11-20 17:39:00,
2013-11-20 13:27:00,51.3,32.7,30.39,ENE,71,0.0,0.0,49,0.00,,,0.00,WUHU216DAVISVP2,2013-11-20 18:27:00,
2013-11-20 13:33:00,50.8,32.3,30.39,ENE,78,0.0,0.0,49,0.00,,,0.00,WUHU216DAVISVP2,2013-11-20 18:33:00,
2013-11-20 13:38:00,50.7,32.2,30.37,ESE,102,0.0,0.0,49,0.00,,,0.00,WUHU216DAVISVP2,2013-11-20 18:38:00,
2013-11-20 13:43:00,50.7,32.2,30.37,ENE,78,0.0,0.0,49,0.00,,,0.00,WUHU216DAVISVP2,2013-11-20 18:43:00,
2013-11-20 13:48:00,50.8,32.3,30.37,East,90,0.0,0.0,49,0.00,,,0.00,WUHU216DAVISVP2,2013-11-20 18:48:00,
2013-11-20 13:53:00,50.5,32.0,30.37,ENE,71,0.0,0.0,49,0.00,,,0.00,WUHU216DAVISVP2,2013-11-20 18:53:00,
2013-11-20 13:58:00,50.5,32.0,30.37,ENE,71,0.0,0.0,49,0.00,,,0.00,WUHU216DAVISVP2,2013-11-20 18:58:00,
2013-11-20 14:03:00,50.5,32.0,30.37,ENE,71,0.0,0.0,49,0.00,,,0.00,WUHU216DAVISVP2,2013-11-20 19:03:00,
2013-11-20 14:08:00,51.1,33.1,30.36,East,93,0.0,0.0,50,0.00,,,0.00,WUHU216DAVISVP2,2013-11-20 19:08:00,
2013-11-20 14:13:00,51.1,33.1,30.36,East,89,0.0,0.0,50,0.00,,,0.00,WUHU216DAVISVP2,2013-11-20 19:13:00,
2013-11-20 14:19:00,51.1,33.1,30.37,East,89,0.0,0.0,50,0.00,,,0.00,WUHU216DAVISVP2,2013-11-20 19:19:00,
2013-11-20 14:24:00,51.1,33.1,30.37,East,89,0.0,0.0,50,0.00,,,0.00,WUHU216DAVISVP2,2013-11-20 19:24:00,
2013-11-20 20:01:00,44.6,35.9,30.41,East,82,0.0,0.0,71,0.00,,,0.00,WUHU216DAVISVP2,2013-11-21 01:01:00,
2013-11-20 20:06:00,45.4,36.5,30.42,East,96,0.0,0.0,71,0.00,,,0.00,WUHU216DAVISVP2,2013-11-21 01:06:00,
2013-11-20 20:12:00,45.4,36.6,30.42,East,93,0.0,0.0,71,0.00,,,0.00,WUHU216DAVISVP2,2013-11-21 01:12:00,
2013-11-20 20:17:00,45.2,36.4,30.42,ENE,68,0.0,0.0,71,0.00,,,0.00,WUHU216DAVISVP2,2013-11-21 01:17:00,
2013-11-20 20:22:00,45.2,36.4,30.41,NNE,13,0.0,0.0,71,0.00,,,0.00,WUHU216DAVISVP2,2013-11-21 01:22:00,
2013-11-20 20:27:00,45.2,36.4,30.41,East,85,0.0,0.0,71,0.00,,,0.00,WUHU216DAVISVP2,2013-11-21 01:27:00,
2013-11-20 20:32:00,45.2,36.4,30.41,West,274,0.0,0.0,71,0.00,,,0.00,WUHU216DAVISVP2,2013-11-21 01:32:00,
2013-11-20 20:37:00,45.2,36.4,30.42,West,274,0.0,0.0,71,0.00,,,0.00,WUHU216DAVISVP2,2013-11-21 01:37:00,
2013-11-20 22:32:00,43.5,36.5,30.42,NE,40,0.0,0.0,76,0.00,,,0.00,WUHU216DAVISVP2,2013-11-21 03:32:00,
2013-11-20 22:37:00,43.2,36.2,30.42,NE,40,0.0,0.0,76,0.00,,,0.00,WUHU216DAVISVP2,2013-11-21 03:37:00,
2013-11-20 22:42:00,43.2,36.1,30.42,NE,40,0.0,0.0,76,0.00,,,0.00,WUHU216DAVISVP2,2013-11-21 03:42:00,
2013-11-20 22:47:00,43.2,36.2,30.42,NE,40,0.0,0.0,76,0.00,,,0.00,WUHU216DAVISVP2,2013-11-21 03:47:00,
2013-11-20 22:52:00,43.2,36.2,30.42,East,92,0.0,0.0,76,0.00,,,0.00,WUHU216DAVISVP2,2013-11-21 03:52:00,
2013-11-20 22:57:00,42.8,35.8,30.42,East,92,0.0,0.0,76,0.00,,,0.00,WUHU216DAVISVP2,2013-11-21 03:57:00,
2013-11-20 23:02:00,42.8,35.8,30.42,East,92,0.0,0.0,76,0.00,,,0.00,WUHU216DAVISVP2,2013-11-21 04:02:00,
2013-11-20 23:07:00,42.8,35.8,30.42,East,92,0.0,0.0,76,0.00,,,0.00,WUHU216DAVISVP2,2013-11-21 04:07:00,
2013-11-20 23:12:00,42.5,35.5,30.42,East,92,0.0,0.0,76,0.00,,,0.00,WUHU216DAVISVP2,2013-11-21 04:12:00,
2013-11-20 23:18:00,42.3,35.3,30.42,East,92,0.0,0.0,76,0.00,,,0.00,WUHU216DAVISVP2,2013-11-21 04:18:00,
2013-11-20 23:23:00,42.2,35.2,30.42,East,92,0.0,0.0,76,0.00,,,0.00,WUHU216DAVISVP2,2013-11-21 04:23:00,
2013-11-20 23:28:00,42.1,35.1,30.42,East,92,0.0,0.0,76,0.00,,,0.00,WUHU216DAVISVP2,2013-11-21 04:28:00,
2013-11-20 23:33:00,41.9,34.9,30.42,East,92,0.0,0.0,76,0.00,,,0.00,WUHU216DAVISVP2,2013-11-21 04:33:00,
2013-11-20 23:38:00,41.6,34.6,30.42,East,92,0.0,0.0,76,0.00,,,0.00,WUHU216DAVISVP2,2013-11-21 04:38:00,
2013-11-20 23:43:00,41.5,34.5,30.42,East,92,0.0,0.0,76,0.00,,,0.00,WUHU216DAVISVP2,2013-11-21 04:43:00,
2013-11-20 23:48:00,41.5,34.5,30.42,East,85,0.0,0.0,76,0.00,,,0.00,WUHU216DAVISVP2,2013-11-21 04:48:00,
2013-11-20 23:53:00,41.2,34.3,30.42,East,85,0.0,0.0,76,0.00,,,0.00,WUHU216DAVISVP2,2013-11-21 04:53:00,
2013-11-20 23:58:00,41.2,34.3,30.42,East,85,0.0,0.0,76,0.00,,,0.00,WUHU216DAVISVP2,2013-11-21 04:58:00,